Simultaneous Nadir Overpasses (SNOs) Predictions

Prediction of SNOs between GOES-14 and AQUA Satellite Orbit:

Table of predicted SNOs for the next 14.0 days since TLE Epoch: 12/10/2022
Index Date Time (GOES-14) GOES-14 Lat,Lon AQUA Lat,Lon Distance(km) Time Diff (sec)
1 12/10/2022 20:38:37 0.05,-104.02 0.13,-103.65 41.88 80
2 12/11/2022 08:59:42 -0.07,-104.39 0.86,-108.78 498.60 80
3 12/12/2022 20:25:40 0.05,-104.02 0.83,-100.50 401.21 80
4 12/13/2022 08:46:44 -0.06,-104.39 0.23,-105.61 139.73 80
5 12/15/2022 08:31:07 -0.06,-104.39 -0.50,-102.46 219.53 80
6 12/15/2022 20:52:17 0.07,-104.01 -0.67,-107.59 406.02 80
7 12/17/2022 20:39:19 0.07,-104.02 -0.04,-104.42 45.90 80
8 12/19/2022 20:29:00 0.06,-104.02 0.62,-101.25 314.22 80
9 12/20/2022 08:50:04 -0.07,-104.41 0.36,-106.38 224.03 80
10 12/22/2022 08:34:25 -0.06,-104.40 -0.32,-103.22 135.35 80
11 12/22/2022 20:55:35 0.07,-104.01 -0.87,-108.33 492.27 80
